Theta_e
308 307 308 308 309 310 310 309 309 308 308 307 308 307 305 303 302 301 301 300 300 300 300 301 300 300 299 300 300 301 303 303 305 314 319 321 321 320 326 327 326 325 324 324
306 308 308 308 308 309 310 309 308 307 309 308 307 308 305 303 303 302 301 300 299 299 299 300 299 299 299 298 299 299 300 300 301 303 305 311 314 320 320 323 325 326 325 324
306 309 309 310 308 310 309 309 308 308 308 308 308 306 306 305 303 302 301 300 299 299 299 298 299 298 298 297 297 298 298 299 299 300 302 308 316 320 323 322 325 326 325 325
308 309 309 309 310 308 312 308 308 309 308 309 306 306 307 306 304 303 301 299 299 298 298 298 298 298 297 297 296 296 296 297 298 298 299 301 304 307 314 315 320 325 324 325
308 307 308 309 309 308 309 307 308 307 307 308 309 303 306 306 305 303 301 300 299 298 297 297 297 298 297 296 295 295 295 295 296 297 298 299 301 302 306 310 315 324 325 325
306 305 306 306 307 308 307 309 308 307 306 303 308 305 305 307 306 304 301 299 299 298 296 297 297 297 296 296 295 294 294 294 295 295 296 297 298 300 302 306 309 316 321 324
304 305 306 306 307 306 306 303 297 300 302 305 306 304 304 306 304 303 302 300 298 297 296 295 295 296 296 295 294 293 293 293 294 295 295 296 298 299 301 303 305 308 313 321
295 295 303 304 306 306 308 307 298 301 309 305 304 307 306 305 303 303 302 301 297 296 295 295 295 295 295 294 293 292 292 292 292 293 294 296 297 298 300 302 304 306 308 314
292 302 303 303 304 304 306 303 306 299 297 305 306 306 306 305 304 303 302 299 297 296 295 294 295 295 295 294 293 292 291 291 292 292 293 294 296 297 298 300 302 304 307 311
298 296 300 303 304 305 306 306 302 298 297 301 305 306 308 307 305 303 302 298 298 296 295 293 294 294 294 293 292 291 291 291 291 292 293 293 294 296 298 300 302 304 309 310
297 293 299 302 299 304 304 301 306 305 303 301 300 305 303 305 304 304 302 299 299 297 295 293 293 293 292 292 292 291 290 290 291 292 292 292 293 294 296 299 301 304 308 312
301 298 295 299 301 302 303 306 306 301 300 299 302 302 305 303 303 303 302 301 298 298 295 293 293 292 291 291 290 290 290 290 290 291 291 291 292 293 295 297 300 303 307 310
302 296 290 292 297 301 302 304 305 303 298 297 299 301 302 303 302 301 302 300 298 297 294 292 291 291 289 290 290 290 290 290 291 291 291 291 291 292 293 295 297 300 304 306
301 290 293 295 298 301 300 299 304 299 293 298 299 297 298 297 295 297 296 297 296 294 291 291 288 290 289 289 289 289 290 290 290 290 290 290 290 291 291 293 295 297 299 302
300 294 289 291 296 298 298 297 296 298 300 297 294 294 301 296 296 294 292 294 296 294 288 291 289 288 289 289 289 289 289 290 290 289 289 289 290 290 291 292 293 294 296 297
300 296 291 289 291 294 295 295 295 292 292 298 300 301 300 299 298 294 292 295 295 294 291 292 289 288 290 288 289 289 289 289 289 289 288 288 290 291 290 290 290 292 292 293
299 296 288 290 289 287 294 292 296 296 296 296 297 299 300 302 303 299 298 295 293 293 294 291 289 290 289 288 289 289 288 289 288 288 288 288 289 290 290 290 291 290 290 290
298 296 292 289 290 296 298 295 296 298 296 298 299 299 303 303 302 301 299 298 296 296 296 294 293 291 289 289 289 289 288 288 288 287 288 288 288 289 289 290 289 289 289 290
296 297 289 289 286 299 301 300 299 299 298 298 299 299 300 302 302 300 299 298 298 296 297 294 293 292 290 289 289 289 288 287 288 287 287 287 287 287 288 287 287 288 289 288
296 296 292 283 289 299 300 299 299 301 301 301 299 300 300 301 303 299 301 297 298 299 298 294 293 291 290 289 289 289 288 287 287 287 286 287 287 286 286 286 287 286 287 287
289 289 290 286 289 296 296 298 300 298 300 304 300 300 301 301 300 298 299 298 299 299 297 294 292 291 291 290 289 288 288 287 287 287 287 286 286 286 286 286 285 285 286 285
295 294 291 287 290 301 298 300 302 300 302 302 302 301 300 300 299 296 297 296 296 296 295 294 292 291 291 290 289 289 288 288 287 286 286 286 286 286 286 286 285 285 285 285
299 297 296 297 299 298 298 298 299 300 300 302 302 301 300 299 299 296 295 294 295 296 295 294 293 291 290 290 290 289 289 288 288 287 287 286 285 285 285 286 285 285 284 284
294 293 295 295 299 297 296 298 297 298 299 299 299 301 300 300 298 298 295 293 294 296 295 295 292 291 291 290 290 291 290 289 288 287 287 287 286 286 286 285 285 285 285 285
293 293 293 294 295 295 295 293 295 295 294 295 296 298 298 297 297 297 296 294 295 295 296 295 293 292 292 291 291 291 290 289 289 288 288 287 287 287 286 286 285 285 285 285
291 293 297 301 298 299 300 297 294 293 294 293 293 294 295 296 297 296 294 298 297 296 295 294 294 293 293 292 291 291 290 290 289 289 288 287 287 286 285 285 284 284 284 285
Wind_Speed
6 10 5 5 4 2 2 4 6 5 4 5 1 4 5 5 6 7 7 7 7 7 10 15 19 18 17 16 18 17 13 13 13 10 4 4 4 6 3 14 18 20 18 19
6 5 5 7 6 5 1 4 5 7 5 4 4 2 4 5 3 4 5 6 7 6 6 13 16 16 16 18 19 17 16 14 13 10 5 4 7 8 4 7 12 20 22 21
6 2 7 3 7 6 5 3 4 5 8 3 3 4 4 3 4 5 6 5 5 5 6 7 15 17 16 20 18 15 15 17 15 13 9 5 8 8 7 9 15 22 26 25
5 5 5 5 3 4 1 2 4 6 5 2 3 3 4 4 5 4 4 5 4 6 5 8 12 14 16 15 17 15 14 13 13 13 12 10 8 6 4 7 9 20 21 27
2 5 5 4 3 4 4 6 5 3 4 3 5 4 5 5 3 2 3 4 3 4 5 6 10 13 14 14 17 14 14 12 14 14 11 10 8 9 12 12 11 10 20 20
2 0 2 2 5 4 7 3 2 1 1 3 4 4 3 3 3 2 2 3 2 4 5 8 11 11 16 15 18 15 17 15 13 13 11 10 11 10 11 12 12 8 3 19
6 2 1 3 4 5 7 5 3 5 5 3 3 3 6 3 2 2 1 1 2 4 5 5 10 11 16 18 19 16 17 14 14 11 11 11 10 10 10 10 12 12 10 2
3 6 5 7 1 1 4 3 3 3 3 4 6 3 4 2 4 4 4 2 4 4 4 6 12 12 11 15 17 18 18 16 15 13 11 10 9 10 10 10 10 11 14 10
3 4 2 3 2 2 6 5 3 4 2 1 4 4 1 1 5 6 5 4 4 5 5 5 10 14 13 11 12 16 16 15 14 14 12 10 10 9 10 11 11 11 12 11
3 3 2 2 1 3 3 2 4 3 3 4 5 5 4 3 0 3 2 2 2 3 5 6 9 11 13 13 13 13 13 14 15 14 14 11 10 9 8 8 10 9 10 9
4 3 4 2 0 3 3 3 1 2 2 3 2 6 5 5 3 2 2 2 1 1 2 3 7 10 11 13 13 15 15 14 13 14 15 14 12 9 7 4 5 5 5 3
5 4 2 6 4 2 2 2 2 3 4 1 3 6 2 5 4 2 5 4 3 0 2 4 6 9 12 13 13 12 16 18 16 13 11 11 11 10 8 6 4 2 0 3
4 1 3 7 5 4 2 3 2 4 3 4 4 6 2 4 5 5 6 6 3 5 4 5 7 8 10 11 13 15 16 17 18 17 16 14 13 12 11 9 7 6 7 9
4 2 6 5 5 4 3 3 5 6 3 3 6 8 6 7 6 7 7 5 6 7 5 6 7 7 7 8 9 12 13 15 17 16 14 15 14 13 12 11 11 11 11 13
3 3 2 5 5 3 5 6 7 8 6 6 5 6 12 8 9 7 5 3 6 7 4 6 6 7 6 5 7 9 10 12 13 16 16 15 13 12 12 14 14 14 15 16
1 2 2 5 2 1 5 8 9 4 3 10 13 20 12 7 3 3 6 5 7 8 6 7 8 8 7 2 4 6 8 9 10 12 15 13 13 13 13 14 15 16 17 18
5 4 3 5 2 3 5 7 11 4 5 7 6 11 4 3 4 4 6 7 8 8 7 8 10 10 7 3 2 5 6 6 8 9 11 12 11 13 13 13 14 16 17 17
5 3 3 4 5 3 5 5 7 7 6 16 8 7 6 6 4 7 7 7 9 8 7 8 12 10 8 5 4 4 5 7 7 8 9 9 8 10 11 12 13 14 16 18
1 4 1 2 2 7 2 4 7 7 6 15 18 13 7 5 3 7 10 11 10 8 13 16 15 12 9 6 5 5 6 6 6 6 8 8 7 7 9 13 13 12 13 15
2 4 3 3 2 4 4 3 5 4 4 6 14 8 6 6 2 4 3 6 10 14 16 18 17 13 11 8 7 6 6 6 6 5 5 6 7 9 11 12 11 11 12 13
2 1 5 3 3 9 5 5 6 5 5 4 7 6 7 6 5 4 4 5 14 19 19 17 18 18 14 11 10 8 7 7 7 7 6 5 6 7 8 10 10 10 11 12
8 8 4 3 1 8 7 5 7 3 1 3 4 6 8 7 5 4 5 6 13 17 17 19 19 18 16 14 13 11 10 8 6 6 6 6 6 7 8 8 10 11 13 13
4 7 6 10 7 2 10 6 7 3 3 3 2 4 6 7 8 7 6 7 15 20 20 21 22 20 19 18 16 14 12 11 9 7 6 6 7 7 7 8 9 11 11 11
4 4 2 2 3 12 10 11 6 6 8 5 6 5 5 7 7 8 7 8 14 21 24 25 24 23 24 23 20 16 14 14 12 10 9 8 8 8 8 8 8 8 8 9
5 7 6 6 9 7 12 11 11 9 7 9 8 9 10 8 8 8 7 11 21 24 26 27 30 30 30 26 25 21 19 18 18 16 14 13 12 12 11 11 10 10 11 11
6 8 6 8 10 6 5 4 6 9 10 12 9 6 13 14 13 12 9 22 23 26 28 30 32 33 32 29 29 27 25 23 22 22 21 21 18 16 15 14 12 11 12 13
Wind_Direction
35 58 30 333 16 331 293 22 348 319 321 20 340 146 121 83 50 36 38 39 34 25 29 50 39 41 35 33 34 17 12 357 11 36 115 252 325 356 212 186 189 196 199 198
39 53 314 309 31 358 35 45 341 310 336 339 318 285 145 124 119 94 66 42 32 13 18 44 40 38 40 25 28 20 9 7 13 13 352 293 266 243 251 236 222 205 201 201
93 272 309 352 35 25 66 73 315 279 317 291 310 322 155 145 120 101 68 67 26 10 22 34 35 35 32 26 16 12 11 1 7 2 353 323 268 269 265 259 251 215 212 210
73 347 354 45 65 23 83 9 325 316 14 320 87 285 196 192 136 90 78 71 31 8 26 44 38 36 29 22 12 5 9 3 0 354 2 9 353 333 306 307 284 235 223 219
276 360 0 19 336 340 254 320 279 284 323 16 340 61 298 168 168 123 95 82 26 19 33 44 39 39 27 21 10 10 7 6 2 347 353 358 348 329 303 300 296 248 246 235
105 134 63 272 286 253 304 310 222 323 70 36 284 106 273 239 183 155 45 24 17 28 18 24 35 29 21 16 8 9 3 8 6 359 357 346 338 330 319 316 307 297 265 231
347 360 319 345 333 2 9 37 353 8 15 229 317 33 246 202 175 160 179 289 53 32 14 7 15 33 18 10 4 8 4 359 2 357 352 350 343 333 323 313 313 308 291 241
107 344 5 342 66 224 337 64 132 189 322 289 321 253 277 176 175 208 213 175 98 51 22 8 4 12 29 11 4 2 3 357 356 356 353 345 341 332 320 305 295 296 293 273
93 299 312 55 328 45 319 40 279 97 52 14 257 274 291 261 275 266 220 108 78 40 20 17 6 360 5 24 18 4 360 358 357 357 355 352 336 322 311 309 300 296 289 282
222 19 283 311 6 334 85 242 28 360 40 335 304 299 244 286 14 30 46 127 92 47 13 2 6 7 6 13 14 22 13 3 360 2 3 354 347 336 319 309 309 311 313 283
127 106 291 10 312 179 28 1 358 127 130 153 295 274 218 197 196 296 302 224 178 11 3 359 4 5 7 11 7 12 14 19 18 14 8 1 359 359 354 328 302 293 314 299
188 145 224 225 260 15 98 227 137 128 278 233 156 275 260 185 184 214 264 271 196 79 24 2 357 0 7 7 18 17 12 18 17 22 23 21 17 17 20 29 29 6 128 141
181 323 11 347 352 357 210 197 154 114 83 220 144 261 310 284 271 263 260 257 284 303 340 339 343 356 4 8 20 20 21 21 18 23 24 25 29 33 35 44 65 89 108 114
103 113 168 197 211 134 188 248 196 136 129 221 230 287 280 274 268 276 271 246 264 283 304 310 317 334 351 11 25 24 25 27 25 33 35 34 33 39 49 59 71 89 103 110
139 200 171 257 256 265 224 192 206 187 197 175 254 233 282 268 262 265 273 252 236 257 264 273 281 302 328 3 38 37 37 38 32 37 38 39 46 57 68 75 79 86 93 97
195 264 89 293 336 289 263 235 208 228 256 273 268 283 266 254 127 290 270 232 232 243 244 248 255 266 273 302 51 43 42 49 42 50 48 48 54 61 66 75 83 88 91 97
174 136 84 274 310 325 321 222 187 192 217 160 183 226 218 224 225 250 256 216 227 225 214 214 224 227 228 221 97 63 55 61 55 61 58 61 71 78 80 85 89 91 94 105
157 124 111 257 350 6 241 146 180 193 223 216 260 243 216 210 223 228 212 209 225 221 211 195 202 200 203 195 136 100 82 73 64 63 70 71 79 89 93 93 92 96 103 101
98 137 63 125 220 294 273 201 162 176 278 209 223 249 232 239 302 281 218 201 207 201 203 193 192 190 188 185 162 144 116 105 91 73 76 79 84 96 105 95 96 104 107 104
77 72 118 70 145 225 243 176 174 176 305 199 198 224 210 181 160 257 304 173 193 201 191 182 180 180 186 187 185 170 151 137 126 120 103 100 99 97 97 99 104 105 111 110
133 63 161 179 243 282 230 159 144 83 236 164 185 200 169 212 216 194 123 139 184 186 184 187 185 186 190 187 189 192 179 174 158 146 138 127 118 112 108 111 115 122 121 122
178 153 181 103 122 277 146 86 175 214 284 184 196 199 192 216 228 208 178 168 173 182 185 190 194 199 195 192 193 197 202 193 175 165 158 156 149 138 133 132 131 126 131 133
226 187 179 189 211 248 204 196 209 174 180 219 241 257 220 214 215 213 221 200 197 199 200 201 205 205 206 203 202 204 203 201 194 194 186 180 177 165 157 155 151 148 150 147
238 170 184 62 254 230 225 246 242 211 221 218 216 220 211 226 230 227 213 219 213 209 210 207 205 211 214 211 212 215 208 203 205 209 209 205 202 194 187 188 186 191 189 186
191 136 175 266 274 271 254 228 234 239 227 243 230 216 221 212 237 228 233 219 222 222 216 213 211 215 222 217 217 214 214 210 212 214 214 213 213 214 210 210 212 211 214 215
191 173 172 222 214 184 230 208 199 211 227 231 223 224 232 211 232 216 232 237 232 226 224 217 221 225 226 222 224 219 216 217 215 214 217 217 216 215 215 216 210 219 220 226